Location: Savignano sul Rubicone
(44.0950°N, 12.4090°E)
Time: 00:17:00
(UTC+01:00)

N. Korean satellite - Visible Passes

Search period start: 28 January 2021 00:00
Search period end: 07 February 2021 00:00
Orbit: 452 x 502 km, 97.2° (Epoch: 27 January)

Date Brightness Start Highest point End Pass type
(mag) Time Alt. Az. Time Alt. Az. Time Alt. Az.
28 Jan 6.5 05:59:34 10° N 06:02:56 52° WNW 06:06:15 10° SSW visible
29 Jan 6.8 05:32:55 10° NNE 05:36:21 65° E 05:39:44 10° S visible
29 Jan 9.7 17:43:13 10° SW 17:45:46 18° W 17:48:19 10° NW visible
30 Jan 8.5 05:06:38 10° NE 05:09:40 28° E 05:12:39 10° SSE visible
30 Jan 8.0 06:40:27 10° NNW 06:42:47 17° WNW 06:45:05 10° WSW visible
31 Jan 9.7 04:41:03 10° ENE 04:42:52 14° E 04:44:40 10° ESE visible
31 Jan 7.0 06:13:11 10° N 06:16:20 34° WNW 06:19:27 10° SW visible
01 Feb 6.3 05:46:22 10° N 05:49:47 80° WNW 05:53:11 10° SSW visible
01 Feb 10.1 17:57:44 10° WSW 17:59:20 12° W 18:00:56 10° WNW visible
02 Feb 7.6 05:19:51 10° NNE 05:23:08 42° E 05:26:23 10° S visible
02 Feb 8.3 06:54:38 10° NW 06:56:04 12° WNW 06:57:29 10° W visible
03 Feb 9.1 04:53:48 10° NE 04:56:23 20° E 04:58:56 10° SE visible
03 Feb 7.5 06:26:51 10° NNW 06:29:40 24° WNW 06:32:26 10° SW visible
04 Feb 6.5 05:59:49 10° N 06:03:09 51° WNW 06:06:28 10° SSW visible
05 Feb 6.7 05:33:07 10° NNE 05:36:32 67° E 05:39:54 10° S visible
06 Feb 8.5 05:06:47 10° NE 05:09:49 29° E 05:12:49 10° SSE visible
06 Feb 8.0 06:40:39 10° NNW 06:42:55 17° WNW 06:45:11 10° WSW visible
